• In Moldova, Republic
  • List of Countries
  • For 7 days
  • Water Temperature
  • Satellite Maps
  • Weather Map
  • Weather Widgets
  • user-avatar
    Login

    Hourly Weather Sumgayit

    Today, 25 February, Saturday

    Time Temperature Precipitation Wind Pressure Humidity
    00:00 +5°C° 0 mm 4 mps 744 mmHg 69%
    01:00 +5°C° 0 mm 4 mps 744 mmHg 67%
    02:00 +5°C° 0 mm 5 mps 744 mmHg 66%
    03:00 +5°C° 0 mm 5 mps 744 mmHg 65%
    04:00 +5°C° 0 mm 5 mps 744 mmHg 65%
    05:00 +5°C° 0 mm 5 mps 743 mmHg 65%
    06:00 +5°C° 0 mm 5 mps 743 mmHg 64%
    07:00 +6°C° 0 mm 5 mps 744 mmHg 60%
    08:00 +7°C° 0 mm 6 mps 744 mmHg 56%
    09:00 +9°C° 0 mm 6 mps 744 mmHg 52%
    10:00 +10°C° 0 mm 6 mps 743 mmHg 48%
    11:00 +11°C° 0 mm 7 mps 743 mmHg 45%
    12:00 +13°C° 0 mm 8 mps 743 mmHg 41%
    13:00 +13°C° 0 mm 8 mps 743 mmHg 40%
    14:00 +13°C° 0 mm 8 mps 742 mmHg 40%
    15:00 +13°C° 0 mm 8 mps 742 mmHg 39%
    16:00 +12°C° 0 mm 8 mps 741 mmHg 44%
    17:00 +11°C° 0 mm 8 mps 741 mmHg 48%
    18:00 +10°C° 0 mm 8 mps 741 mmHg 52%
    19:00 +9°C° 0 mm 8 mps 741 mmHg 55%
    20:00 +7°C° 0 mm 8 mps 740 mmHg 57%
    21:00 +7°C° 0 mm 8 mps 740 mmHg 59%
    22:00 +6°C° 0 mm 8 mps 740 mmHg 59%
    23:00 +6°C° 0 mm 8 mps 739 mmHg 59%

    Tomorrow, 26 February, Sunday

    Time Temperature Precipitation Wind Pressure Humidity
    00:00 +6°C° 0 mm 8 mps 739 mmHg 59%
    01:00 +6°C° 0 mm 8 mps 738 mmHg 57%
    02:00 +6°C° 0 mm 8 mps 738 mmHg 55%
    03:00 +6°C° 0 mm 8 mps 737 mmHg 53%
    04:00 +5°C° 0 mm 8 mps 737 mmHg 53%
    05:00 +5°C° 0 mm 8 mps 737 mmHg 52%
    06:00 +5°C° 0 mm 7 mps 737 mmHg 51%
    07:00 +6°C° 0 mm 7 mps 737 mmHg 47%
    08:00 +9°C° 0 mm 7 mps 738 mmHg 42%
    09:00 +10°C° 0 mm 7 mps 738 mmHg 37%
    10:00 +11°C° 0 mm 7 mps 739 mmHg 40%
    11:00 +11°C° 0 mm 8 mps 740 mmHg 43%
    12:00 +12°C° 0 mm 8 mps 740 mmHg 46%
    13:00 +11°C° 0 mm 9 mps 741 mmHg 50%
    14:00 +9°C° 0 mm 10 mps 741 mmHg 54%
    15:00 +8°C° 0 mm 12 mps 742 mmHg 58%
    16:00 +5°C° 0 mm 12 mps 743 mmHg 61%
    17:00 +4°C° 0 mm 12 mps 744 mmHg 65%
    18:00 +1°C° 0 mm 13 mps 745 mmHg 69%
    19:00 +2°C° 0 mm 12 mps 746 mmHg 68%
    20:00 0°C° 0 mm 12 mps 746 mmHg 66%
    21:00 +1°C° 0 mm 11 mps 747 mmHg 65%
    22:00 +1°C° 0 mm 10 mps 748 mmHg 64%
    23:00 +1°C° 0 mm 9 mps 748 mmHg 62%

    Day after tomorrow, 27 February, Monday

    Time Temperature Precipitation Wind Pressure Humidity
    00:00 +1°C° 0 mm 8 mps 749 mmHg 61%
    01:00 +1°C° 0 mm 6 mps 749 mmHg 61%
    02:00 +1°C° 0 mm 5 mps 749 mmHg 62%
    03:00 +1°C° 0 mm 4 mps 749 mmHg 63%
    04:00 +1°C° 0 mm 4 mps 749 mmHg 64%
    05:00 +2°C° 0 mm 3 mps 749 mmHg 65%
    06:00 +3°C° 0 mm 2 mps 749 mmHg 66%
    07:00 +2°C° 0 mm 3 mps 749 mmHg 64%
    08:00 +3°C° 0 mm 3 mps 749 mmHg 62%
    09:00 +3°C° 0 mm 3 mps 749 mmHg 60%
    10:00 +4°C° 0 mm 4 mps 749 mmHg 59%
    11:00 +5°C° 0 mm 4 mps 748 mmHg 59%
    12:00 +5°C° 0 mm 5 mps 748 mmHg 58%
    13:00 +6°C° 0 mm 5 mps 747 mmHg 59%
    14:00 +5°C° 0 mm 6 mps 746 mmHg 60%
    15:00 +5°C° 0 mm 6 mps 746 mmHg 61%
    16:00 +5°C° 0 mm 6 mps 745 mmHg 65%
    17:00 +5°C° 0 mm 5 mps 745 mmHg 69%
    18:00 +3°C° 0 mm 5 mps 745 mmHg 73%
    19:00 +3°C° 0 mm 5 mps 745 mmHg 75%
    20:00 +3°C° 0 mm 5 mps 745 mmHg 77%
    21:00 +4°C° 0 mm 4 mps 745 mmHg 80%
    22:00 +3°C° 0 mm 4 mps 745 mmHg 82%
    23:00 +3°C° 0 mm 4 mps 745 mmHg 84%

    28 February, Tuesday

    Time Temperature Precipitation Wind Pressure Humidity
    00:00 +3°C° 0 mm 3 mps 745 mmHg 86%
    01:00 +3°C° 0 mm 3 mps 745 mmHg 86%
    02:00 +2°C° 0 mm 3 mps 744 mmHg 87%
    03:00 +3°C° 0 mm 2 mps 744 mmHg 87%
    04:00 +3°C° 0 mm 2 mps 745 mmHg 87%
    05:00 +3°C° 0 mm 2 mps 745 mmHg 87%
    06:00 +4°C° 0 mm 1 mps 745 mmHg 87%
    07:00 +5°C° 0 mm 1 mps 745 mmHg 80%
    08:00 +6°C° 0 mm 1 mps 746 mmHg 73%
    09:00 +8°C° 0 mm 1 mps 747 mmHg 66%
    10:00 +9°C° 0 mm 1 mps 746 mmHg 62%
    11:00 +10°C° 0 mm 1 mps 746 mmHg 57%
    12:00 +11°C° 0 mm 1 mps 746 mmHg 53%
    13:00 +11°C° 0 mm 1 mps 746 mmHg 52%
    14:00 +10°C° 0 mm 2 mps 746 mmHg 52%
    15:00 +10°C° 0 mm 2 mps 746 mmHg 51%
    16:00 +9°C° 0 mm 2 mps 746 mmHg 57%
    17:00 +8°C° 0 mm 2 mps 746 mmHg 62%
    18:00 +7°C° 0 mm 2 mps 746 mmHg 68%
    19:00 +7°C° 0 mm 1 mps 746 mmHg 71%
    20:00 +7°C° 0 mm 1 mps 747 mmHg 74%
    21:00 +6°C° 0 mm 1 mps 747 mmHg 77%
    22:00 +6°C° 0 mm 1 mps 747 mmHg 77%
    23:00 +6°C° 0 mm 1 mps 747 mmHg 77%

    1 March, Wednesday

    Time Temperature Precipitation Wind Pressure Humidity
    00:00 +6°C° 0 mm 1 mps 747 mmHg 78%
    01:00 +6°C° 0 mm 1 mps 746 mmHg 77%
    02:00 +5°C° 0 mm 1 mps 746 mmHg 76%
    03:00 +4°C° 0 mm 2 mps 746 mmHg 75%
    04:00 +4°C° 0 mm 2 mps 746 mmHg 75%
    05:00 +4°C° 0 mm 2 mps 746 mmHg 75%
    06:00 +3°C° 0 mm 3 mps 746 mmHg 75%
    07:00 +5°C° 0 mm 3 mps 746 mmHg 70%
    08:00 +7°C° 0 mm 3 mps 747 mmHg 65%
    09:00 +8°C° 0 mm 4 mps 747 mmHg 60%
    10:00 +9°C° 0 mm 5 mps 746 mmHg 58%
    11:00 +10°C° 0 mm 5 mps 746 mmHg 55%
    12:00 +11°C° 0 mm 6 mps 746 mmHg 52%
    13:00 +11°C° 0 mm 6 mps 745 mmHg 52%
    14:00 +11°C° 0 mm 6 mps 745 mmHg 53%
    15:00 +11°C° 0 mm 6 mps 744 mmHg 53%
    16:00 +10°C° 0 mm 6 mps 744 mmHg 58%
    17:00 +9°C° 0 mm 6 mps 744 mmHg 63%
    18:00 +8°C° 0 mm 6 mps 744 mmHg 69%
    19:00 +7°C° 0 mm 5 mps 744 mmHg 71%
    20:00 +7°C° 0 mm 5 mps 744 mmHg 74%
    21:00 +6°C° 0 mm 5 mps 744 mmHg 77%
    22:00 +6°C° 0 mm 4 mps 743 mmHg 77%
    23:00 +6°C° 0 mm 4 mps 743 mmHg 78%

    2 March, Thursday

    Time Temperature Precipitation Wind Pressure Humidity
    00:00 +5°C° 0 mm 4 mps 742 mmHg 79%
    01:00 +5°C° 0 mm 4 mps 742 mmHg 80%
    02:00 +5°C° 0 mm 4 mps 742 mmHg 80%
    03:00 +5°C° 0 mm 4 mps 741 mmHg 81%
    04:00 +5°C° 0 mm 4 mps 741 mmHg 81%
    05:00 +5°C° 0 mm 4 mps 741 mmHg 82%
    06:00 +4°C° 0 mm 4 mps 741 mmHg 82%
    07:00 +6°C° 0 mm 4 mps 741 mmHg 76%
    08:00 +7°C° 0 mm 4 mps 741 mmHg 69%
    09:00 +9°C° 0 mm 5 mps 741 mmHg 63%
    10:00 +10°C° 0 mm 5 mps 741 mmHg 59%
    11:00 +12°C° 0 mm 5 mps 740 mmHg 54%
    12:00 +13°C° 0 mm 5 mps 740 mmHg 50%
    13:00 +13°C° 0 mm 5 mps 740 mmHg 49%
    14:00 +13°C° 0 mm 6 mps 739 mmHg 49%
    15:00 +14°C° 0 mm 6 mps 739 mmHg 49%
    16:00 +12°C° 0 mm 5 mps 739 mmHg 54%
    17:00 +11°C° 0 mm 4 mps 739 mmHg 60%
    18:00 +10°C° 0 mm 4 mps 739 mmHg 65%
    19:00 +9°C° 0 mm 3 mps 739 mmHg 67%
    20:00 +9°C° 0 mm 3 mps 739 mmHg 68%
    21:00 +8°C° 0 mm 2 mps 739 mmHg 69%
    22:00 +8°C° 0 mm 2 mps 739 mmHg 68%
    23:00 +8°C° 0 mm 2 mps 739 mmHg 68%
    Show more